Location: El Gallo
(32.4380°N, 116.9347°W)
Time: 19:45:19
(UTC+00:00)

Cosmos 2061 Rocket - Pass Details

Date: 01 October 2022
Orbit: 966 x 1012 km, 82.9° (Epoch: 01 December)

Event Time Altitude Azimuth Distance (km) Brightness Sun altitude
Rises 13:01:52 0° 206° (SSW) 3,655 6.7 -9.3°
Reaches altitude 10° 13:04:34 10° 214° (SW) 2,707 6.0 -8.7°
Maximum altitude 13:10:15 38° 281° (W) 1,439 4.5 -7.5°
Drops below altitude 10° 13:15:58 10° 348° (NNW) 2,710 6.2 -6.3°
Sets 13:18:40 0° 356° (N) 3,660 7.0 -5.7°
